Toccoa Rg Letourneau Field, T, GA

7:18 AM EST on November 14, 2019 (GMT -0500)
Toccoa-Letourneau

Weather History for KTOC - October, 2019

Change the Weather History Date:

Friday, October 18, 2019

  Actual Average Record
Temperature  
Mean Temperature 54 °F -  
Max Temperature 68 °F 72 °F 87 °F (2016)
Min Temperature 39 °F 48 °F 39 °F (2015)
Degree Days  
Heating Degree Days 12    
Growing Degree Days 4 (Base 50)    
Moisture  
Dew Point 41 °F    
Average Humidity 66    
Maximum Humidity 92    
Minimum Humidity 32    
Precipitation  
Precipitation 0.00 in - - ()
Sea Level Pressure  
Sea Level Pressure 30.01 in    
Wind  
Wind Speed 1 mph ()    
Max Wind Speed 5 mph    
Max Gust Speed -    
Visibility 10.0 miles    
Events      
Averages and records for this station are not official NWS values.
T = Trace of Precipitation, MM = Missing Value Source: Averaged Metar Reports

Daily Weather History Graph

Daily Weather History Graph

Search for Another Location

Airport or City:

Astronomy

Oct. 18, 2019 Rise Set
Actual Time 7:41 AM EDT 6:55 PM EDT
Civil Twilight 7:15 AM EDT 7:20 PM EDT
Nautical Twilight 6:46 AM EDT 7:49 PM EDT
Astronomical Twilight 6:17 AM EDT 8:19 PM EDT
Moon 10:20 PM EDT (10/18) 12:03 PM EDT (10/18)
Length of Visible Light 12h 04m
Length of Day
11h 14m
Waning Gibbous, 79% of the Moon is Illuminated
Oct 18
Waning Gibbous
Oct 21
Last Quarter
Oct 27
New
Nov 4
First Quarter
Nov 12
Full

Hourly Weather History & Observations

Time (EDT) Temp. Windchill Dew Point Humidity Pressure Visibility Wind Dir Wind Speed Gust Speed Precip Events Conditions
12:15 AM 50.9 °F - 36.0 °F 57% 29.95 in 10.0 mi Calm Calm - N/A   Clear
12:35 AM 49.1 °F - 38.7 °F 67% 29.95 in 10.0 mi Calm Calm - N/A   Clear
12:55 AM 48.7 °F - 38.1 °F 67% 29.96 in 10.0 mi Calm Calm - N/A   Clear
1:15 AM 49.5 °F - 37.2 °F 63% 29.96 in 10.0 mi Calm Calm - N/A   Clear
1:35 AM 46.6 °F - 39.0 °F 75% 29.96 in 10.0 mi Calm Calm - N/A   Clear
1:55 AM 47.7 °F - 38.1 °F 70% 29.97 in 10.0 mi NNW 3.5 mph - N/A   Clear
2:15 AM 46.0 °F - 38.8 °F 76% 29.97 in 10.0 mi Calm Calm - N/A   Clear
2:35 AM 47.7 °F - 37.9 °F 69% 29.97 in 10.0 mi Calm Calm - N/A   Clear
2:55 AM 47.5 °F - 38.7 °F 71% 29.98 in 10.0 mi Calm Calm - N/A   Clear
3:15 AM 43.7 °F - 39.2 °F 84% 29.98 in 10.0 mi Calm Calm - N/A   Clear
3:35 AM 44.1 °F - 39.2 °F 83% 29.99 in 10.0 mi Calm Calm - N/A   Clear
3:55 AM 43.3 °F - 38.7 °F 84% 29.99 in 10.0 mi Calm Calm - N/A   Clear
4:15 AM 42.8 °F - 39.0 °F 86% 29.99 in 10.0 mi Calm Calm - N/A   Clear
4:35 AM 42.3 °F - 38.7 °F 87% 29.99 in 10.0 mi Calm Calm - N/A   Clear
4:55 AM 42.1 °F - 38.5 °F 87% 29.99 in 10.0 mi Calm Calm - N/A   Clear
5:15 AM 40.8 °F - 38.1 °F 90% 29.99 in 10.0 mi Calm Calm - N/A   Clear
5:55 AM 40.5 °F - 38.1 °F 91% 30.00 in 10.0 mi Calm Calm - N/A   Clear
6:15 AM 40.1 °F - 37.6 °F 91% 30.01 in 10.0 mi Calm Calm - N/A   Clear
6:35 AM 41.0 °F - 38.5 °F 91% 30.02 in 10.0 mi Calm Calm - N/A   Clear
6:55 AM 41.2 °F - 38.3 °F 89% 30.02 in 10.0 mi Calm Calm - N/A   Clear
7:15 AM 40.5 °F - 37.6 °F 89% 30.02 in 10.0 mi Calm Calm - N/A   Clear
7:35 AM 39.4 °F - 36.9 °F 91% 30.03 in 10.0 mi Calm Calm - N/A   Clear
7:55 AM 40.5 °F 38.4 °F 38.3 °F 92% 30.03 in 10.0 mi North 3.5 mph - N/A   Clear
8:15 AM 41.7 °F 38.8 °F 38.7 °F 89% 30.03 in 10.0 mi NNW 4.6 mph - N/A   Clear
8:35 AM 44.1 °F 42.5 °F 39.6 °F 84% 30.03 in 10.0 mi North 3.5 mph - N/A   Clear
8:55 AM 46.6 °F - 40.1 °F 78% 30.04 in 10.0 mi Calm Calm - N/A   Clear
9:15 AM 49.1 °F - 40.3 °F 72% 30.05 in 10.0 mi Calm Calm - N/A   Clear
9:35 AM 51.6 °F - 40.6 °F 66% 30.05 in 10.0 mi North 4.6 mph - N/A   Clear
9:55 AM 53.6 °F - 40.3 °F 61% 30.06 in 10.0 mi North 3.5 mph - N/A   Clear
10:15 AM 55.6 °F - 39.9 °F 56% 30.07 in 10.0 mi NNE 4.6 mph - N/A   Clear
10:35 AM 57.7 °F - 40.3 °F 52% 30.07 in 10.0 mi ENE 4.6 mph - N/A   Clear
10:55 AM 58.8 °F - 39.2 °F 48% 30.07 in 10.0 mi ENE 4.6 mph - N/A   Clear
11:15 AM 60.3 °F - 38.1 °F 44% 30.07 in 10.0 mi SE 4.6 mph - N/A   Clear
11:35 AM 61.2 °F - 35.1 °F 38% 30.07 in 10.0 mi Calm Calm - N/A   Clear
11:55 AM 62.2 °F - 37.0 °F 39% 30.07 in 10.0 mi ESE 3.5 mph - N/A   Clear
12:15 PM 63.7 °F - 37.8 °F 38% 30.06 in 10.0 mi Calm Calm - N/A   Clear
12:35 PM 65.1 °F - 38.7 °F 38% 30.06 in 10.0 mi Calm Calm - N/A   Clear
12:55 PM 66.0 °F - 35.8 °F 33% 30.06 in 10.0 mi South 4.6 mph - N/A   Clear
1:15 PM 66.4 °F - 36.9 °F 34% 30.05 in 10.0 mi South 4.6 mph - N/A   Clear
1:35 PM 67.3 °F - 36.7 °F 32% 30.04 in 10.0 mi SE 3.5 mph - N/A   Clear
1:55 PM 66.4 °F - 36.9 °F 34% 30.03 in 10.0 mi SE 4.6 mph - N/A   Clear
2:15 PM 67.3 °F - 36.9 °F 33% 30.02 in 10.0 mi Calm Calm - N/A   Clear
2:35 PM 67.1 °F - 36.5 °F 32% 30.01 in 10.0 mi Calm Calm - N/A   Clear
2:55 PM 67.1 °F - 36.9 °F 33% 30.00 in 10.0 mi Calm Calm - N/A   Clear
3:15 PM 68.0 °F - 37.4 °F 33% 30.00 in 10.0 mi Calm Calm - N/A   Clear
3:35 PM 67.6 °F - 38.8 °F 35% 29.99 in 10.0 mi Calm Calm - N/A   Clear
3:55 PM 68.0 °F - 38.1 °F 33% 30.00 in 10.0 mi Calm Calm - N/A   Clear
4:15 PM 67.1 °F - 40.6 °F 38% 30.00 in 10.0 mi SE 3.5 mph - N/A   Clear
4:35 PM 66.7 °F - 41.2 °F 39% 30.00 in 10.0 mi East 3.5 mph - N/A   Clear
4:55 PM 66.4 °F - 41.5 °F 40% 30.00 in 10.0 mi Calm Calm - N/A   Clear
5:15 PM 65.8 °F - 42.4 °F 43% 30.00 in 10.0 mi ENE 3.5 mph - N/A   Clear
5:35 PM 64.8 °F - 43.5 °F 46% 30.00 in 10.0 mi Calm Calm - N/A   Clear
5:55 PM 63.9 °F - 45.5 °F 51% 30.00 in 10.0 mi ENE 3.5 mph - N/A   Clear
6:15 PM 62.8 °F - 48.2 °F 59% 30.00 in 10.0 mi Calm Calm - N/A   Clear
6:35 PM 61.0 °F - 48.6 °F 64% 30.01 in 10.0 mi Calm Calm - N/A   Clear
6:55 PM 59.0 °F - 49.3 °F 70% 30.01 in 10.0 mi Calm Calm - N/A   Clear
7:15 PM 57.7 °F - 48.7 °F 72% 30.01 in 10.0 mi Calm Calm - N/A   Clear
7:35 PM 56.3 °F - 49.1 °F 77% 30.01 in 10.0 mi Calm Calm - N/A   Clear
7:55 PM 56.5 °F - 49.1 °F 76% 30.01 in 10.0 mi Calm Calm - N/A   Clear
8:15 PM 55.4 °F - 49.1 °F 79% 30.01 in 10.0 mi Calm Calm - N/A   Clear
8:35 PM 54.7 °F - 48.9 °F 81% 30.01 in 10.0 mi Calm Calm - N/A   Clear
8:55 PM 54.5 °F - 48.2 °F 79% 30.00 in 10.0 mi Calm Calm - N/A   Clear
9:15 PM 54.0 °F - 48.4 °F 81% 30.01 in 10.0 mi Calm Calm - N/A   Clear
9:35 PM 53.8 °F - 48.0 °F 81% 30.01 in 10.0 mi NNW 3.5 mph - N/A   Clear
9:55 PM 53.6 °F - 48.0 °F 81% 30.00 in 10.0 mi Calm Calm - N/A   Clear
10:15 PM 53.6 °F - 47.7 °F 80% 30.01 in 10.0 mi Calm Calm - N/A   Clear
10:35 PM 51.3 °F - 47.7 °F 87% 30.01 in 10.0 mi Calm Calm - N/A   Clear
10:55 PM 50.4 °F - 47.5 °F 90% 30.01 in 10.0 mi Calm Calm - N/A   Clear
11:15 PM 50.4 °F - 48.0 °F 92% 30.02 in 10.0 mi Calm Calm - N/A   Clear
11:35 PM 51.3 °F - 47.8 °F 88% 30.03 in 10.0 mi North 3.5 mph - N/A   Clear
11:55 PM 49.8 °F - 46.8 °F 89% 30.03 in 10.0 mi Calm Calm - N/A   Clear